Kokomo, IN

7:05 AM EDT on March 24, 2017 (GMT -0400)
Kokomo Municipal

Weather History for KOKK - December, 2013

Change the Weather History Date:

Monday, December 2, 2013

  Actual Average (KGUS) Record (KGUS)
Temperature  
Mean Temperature 36 °F -  
Max Temperature 42 °F 41 °F 61 °F (2012)
Min Temperature 30 °F 29 °F 15 °F (2005)
Degree Days  
Heating Degree Days 29    
Moisture  
Dew Point 31 °F    
Average Humidity 84    
Maximum Humidity 93    
Minimum Humidity 70    
Precipitation  
Precipitation 0.00 in - - ()
Sea Level Pressure  
Sea Level Pressure 29.85 in    
Wind  
Wind Speed 6 mph (East)    
Max Wind Speed 13 mph    
Max Gust Speed 16 mph    
Visibility 4 miles    
Events      
Averages and records for this station are not official NWS values.
T = Trace of Precipitation, MM = Missing Value Source: NWS Daily Summary

Daily Weather History Graph

Daily Weather History Graph

Search for Another Location

Airport or City:

Trip Planner

Search our weather history database for the weather conditions in past years. The results will help you decide how hot, cold, wet, or windy it might be!

Date:

Astronomy

Dec. 02, 2013 Rise Set
Actual Time 6:49 AM CST 4:17 PM CST
Civil Twilight 6:19 AM CST 4:48 PM CST
Nautical Twilight 5:45 AM CST 5:22 PM CST
Astronomical Twilight 5:12 AM CST 5:55 PM CST
Moon 6:13 AM CST (12/2) 4:20 PM CST (12/2)
Length of Visible Light 10h 28m
Length of Day
9h 28m
Waning Crescent, 0% of the Moon is Illuminated
Dec 2
Waning Crescent
Dec 2
New
Dec 9
First Quarter
Dec 17
Full
Dec 25
Last Quarter

Hourly Weather History & Observations

Time (CST) Temp. Windchill Dew Point Humidity Pressure Visibility Wind Dir Wind Speed Gust Speed Precip Events Conditions
12:15 AM 33.8 °F 30.8 °F 28.4 °F 81% 29.95 in 7.0 mi ENE 3.5 mph - N/A   Clear
12:35 AM 33.8 °F - 28.4 °F 81% 29.95 in 7.0 mi Calm Calm - N/A   Clear
12:55 AM 30.2 °F - 26.6 °F 86% 29.94 in 7.0 mi Calm Calm - N/A   Clear
1:15 AM 30.2 °F - 28.4 °F 93% 29.94 in 5.0 mi Calm Calm - N/A   Partly Cloudy
1:35 AM 32.0 °F - 28.4 °F 87% 29.94 in 6.0 mi Calm Calm - N/A   Mostly Cloudy
1:55 AM 30.2 °F - 28.4 °F 93% 29.95 in 6.0 mi Calm Calm - N/A   Mostly Cloudy
2:15 AM 30.2 °F - 26.6 °F 86% 29.94 in 6.0 mi Calm Calm - N/A   Scattered Clouds
2:35 AM 30.2 °F 26.7 °F 26.6 °F 86% 29.93 in 5.0 mi ENE 3.5 mph - N/A   Scattered Clouds
2:55 AM 32.0 °F 27.5 °F 28.4 °F 87% 29.92 in 5.0 mi East 4.6 mph - N/A   Partly Cloudy
3:15 AM 33.8 °F 30.8 °F 28.4 °F 81% 29.92 in 5.0 mi East 3.5 mph - N/A   Clear
3:35 AM 33.8 °F 29.6 °F 30.2 °F 87% 29.91 in 5.0 mi ENE 4.6 mph - N/A   Clear
3:55 AM 32.0 °F 26.4 °F 28.4 °F 87% 29.92 in 5.0 mi ENE 5.8 mph - N/A   Clear
4:15 AM 32.0 °F 27.5 °F 28.4 °F 87% 29.92 in 5.0 mi ENE 4.6 mph - N/A   Mostly Cloudy
4:35 AM 33.8 °F 29.6 °F 30.2 °F 87% 29.92 in 4.0 mi NE 4.6 mph - N/A   Overcast
4:55 AM 33.8 °F 28.6 °F 30.2 °F 87% 29.92 in 4.0 mi ENE 5.8 mph - N/A   Overcast
5:15 AM 32.0 °F 26.4 °F 28.4 °F 87% 29.91 in 4.0 mi East 5.8 mph - N/A   Scattered Clouds
5:35 AM 30.2 °F 23.4 °F 28.4 °F 93% 29.90 in 3.0 mi East 6.9 mph - N/A   Clear
5:55 AM 30.2 °F 23.4 °F 28.4 °F 93% 29.90 in 4.0 mi East 6.9 mph - N/A   Clear
6:15 AM 30.2 °F 23.4 °F 26.6 °F 86% 29.90 in 3.0 mi East 6.9 mph - N/A   Clear
6:35 AM 30.2 °F 23.4 °F 28.4 °F 93% 29.90 in 3.0 mi East 6.9 mph - N/A   Mostly Cloudy
6:55 AM 32.0 °F 25.6 °F 28.4 °F 87% 29.89 in 3.0 mi East 6.9 mph - N/A   Overcast
7:15 AM 33.8 °F 27.0 °F 28.4 °F 81% 29.89 in 3.0 mi East 8.1 mph - N/A   Overcast
7:35 AM 33.8 °F 27.7 °F 28.4 °F 81% 29.89 in 3.0 mi East 6.9 mph - N/A   Overcast
7:55 AM 33.8 °F 26.4 °F 28.4 °F 81% 29.89 in 4.0 mi East 9.2 mph - N/A   Overcast
8:15 AM 33.8 °F 27.7 °F 28.4 °F 81% 29.89 in 4.0 mi East 6.9 mph - N/A   Overcast
8:35 AM 35.6 °F 29.9 °F 30.2 °F 81% 29.90 in 4.0 mi East 6.9 mph - N/A   Overcast
8:55 AM 35.6 °F 29.9 °F 30.2 °F 81% 29.89 in 4.0 mi East 6.9 mph - N/A   Mostly Cloudy
9:15 AM 35.6 °F 29.2 °F 30.2 °F 81% 29.89 in 4.0 mi East 8.1 mph - N/A   Partly Cloudy
9:35 AM 35.6 °F 29.2 °F 30.2 °F 81% 29.89 in 4.0 mi East 8.1 mph - N/A   Clear
9:55 AM 37.4 °F 32.1 °F 30.2 °F 75% 29.90 in 5.0 mi ESE 6.9 mph - N/A   Scattered Clouds
10:15 AM 37.4 °F 29.8 °F 30.2 °F 75% 29.89 in 5.0 mi East 11.5 mph - N/A   Overcast
10:35 AM 39.2 °F 32.0 °F 30.2 °F 70% 29.88 in 6.0 mi ESE 11.5 mph - N/A   Mostly Cloudy
10:55 AM 39.2 °F 32.5 °F 30.2 °F 70% 29.87 in 6.0 mi East 10.4 mph - N/A   Mostly Cloudy
11:15 AM 39.2 °F 32.0 °F 30.2 °F 70% 29.86 in 6.0 mi East 11.5 mph - N/A   Scattered Clouds
11:35 AM 39.2 °F 32.0 °F 30.2 °F 70% 29.85 in 5.0 mi ESE 11.5 mph - N/A   Partly Cloudy
11:55 AM 39.2 °F 32.0 °F 30.2 °F 70% 29.84 in 5.0 mi East 11.5 mph 16.1 mph N/A   Partly Cloudy
12:15 PM 39.2 °F 33.0 °F 32.0 °F 75% 29.84 in 5.0 mi East 9.2 mph - N/A   Mostly Cloudy
12:35 PM 41.0 °F 34.3 °F 32.0 °F 70% 29.83 in 5.0 mi East 11.5 mph - N/A   Scattered Clouds
12:55 PM 41.0 °F 33.9 °F 32.0 °F 70% 29.82 in 5.0 mi East 12.7 mph - N/A   Mostly Cloudy
1:15 PM 41.0 °F 34.7 °F 32.0 °F 70% 29.81 in 5.0 mi ESE 10.4 mph - N/A   Scattered Clouds
1:35 PM 41.0 °F 34.7 °F 33.8 °F 76% 29.81 in 5.0 mi East 10.4 mph - N/A   Clear
1:55 PM 42.8 °F 36.6 °F 33.8 °F 70% 29.80 in 5.0 mi East 11.5 mph - N/A   Clear
2:15 PM 42.8 °F 36.6 °F 33.8 °F 70% 29.79 in 5.0 mi East 11.5 mph - N/A   Scattered Clouds
2:35 PM 41.0 °F 34.7 °F 32.0 °F 70% 29.79 in 5.0 mi East 10.4 mph - N/A   Scattered Clouds
2:55 PM 41.0 °F 34.3 °F 32.0 °F 70% 29.79 in 5.0 mi East 11.5 mph - N/A   Scattered Clouds
3:15 PM 41.0 °F 35.2 °F 33.8 °F 76% 29.80 in 5.0 mi East 9.2 mph - N/A   Mostly Cloudy
3:35 PM 39.2 °F 33.0 °F 33.8 °F 81% 29.80 in 5.0 mi East 9.2 mph - N/A   Overcast
3:55 PM 39.2 °F 32.5 °F 33.8 °F 81% 29.80 in 5.0 mi East 10.4 mph - N/A   Overcast
4:15 PM 39.2 °F 33.6 °F 33.8 °F 81% 29.80 in 3.0 mi East 8.1 mph - N/A   Overcast
4:35 PM 39.2 °F 34.2 °F 33.8 °F 81% 29.80 in 4.0 mi East 6.9 mph - N/A   Overcast
4:55 PM 37.4 °F 31.4 °F 33.8 °F 87% 29.80 in 3.0 mi East 8.1 mph - N/A   Overcast
5:15 PM 37.4 °F 32.1 °F 35.6 °F 93% 29.81 in 3.0 mi East 6.9 mph - N/A   Overcast
5:35 PM 37.4 °F 31.4 °F 35.6 °F 93% 29.81 in 3.0 mi East 8.1 mph - N/A   Overcast
5:55 PM 37.4 °F 31.4 °F 33.8 °F 87% 29.81 in 3.0 mi East 8.1 mph - N/A   Overcast
6:15 PM 37.4 °F 30.8 °F 35.6 °F 93% 29.81 in 2.5 mi East 9.2 mph - N/A   Overcast
6:35 PM 37.4 °F 30.8 °F 33.8 °F 87% 29.81 in 3.0 mi East 9.2 mph - N/A   Overcast
6:55 PM 37.4 °F 30.8 °F 33.8 °F 87% 29.81 in 3.0 mi East 9.2 mph - N/A   Overcast
7:15 PM 37.4 °F 30.8 °F 33.8 °F 87% 29.81 in 2.5 mi East 9.2 mph - N/A   Overcast
7:35 PM 35.6 °F 28.6 °F 33.8 °F 93% 29.80 in 2.5 mi East 9.2 mph - N/A   Overcast
7:55 PM 35.6 °F 28.0 °F 33.8 °F 93% 29.80 in 2.5 mi East 10.4 mph - N/A   Overcast
8:15 PM 35.6 °F 28.0 °F 33.8 °F 93% 29.80 in 2.5 mi East 10.4 mph - N/A   Overcast
8:35 PM 35.6 °F 28.0 °F 33.8 °F 93% 29.80 in 2.5 mi East 10.4 mph - N/A   Overcast
8:55 PM 35.6 °F 28.0 °F 33.8 °F 93% 29.80 in 2.5 mi East 10.4 mph - N/A   Overcast
9:15 PM 35.6 °F 28.6 °F 33.8 °F 93% 29.80 in 2.5 mi East 9.2 mph - N/A   Overcast
9:35 PM 35.6 °F 28.6 °F 33.8 °F 93% 29.80 in 2.5 mi ESE 9.2 mph - N/A   Overcast
9:55 PM 35.6 °F 28.6 °F 33.8 °F 93% 29.80 in 2.5 mi ESE 9.2 mph - N/A   Overcast
10:15 PM 35.6 °F 28.0 °F 33.8 °F 93% 29.79 in 2.5 mi ESE 10.4 mph - N/A   Mostly Cloudy
10:35 PM 35.6 °F 28.6 °F 33.8 °F 93% 29.79 in 2.5 mi ESE 9.2 mph - N/A   Overcast
10:55 PM 37.4 °F 30.3 °F 33.8 °F 87% 29.79 in 2.5 mi ESE 10.4 mph - N/A   Overcast
11:15 PM 37.4 °F 30.8 °F 35.6 °F 93% 29.79 in 2.0 mi ESE 9.2 mph - N/A   Overcast
11:35 PM 37.4 °F 30.3 °F 35.6 °F 93% 29.78 in 2.0 mi ESE 10.4 mph - N/A   Overcast
11:55 PM 37.4 °F 30.8 °F 35.6 °F 93% 29.77 in 2.0 mi ESE 9.2 mph - N/A   Overcast